Location: Mactaquac Provincial Park
(45.9573°N, 66.8897°W)
Time: 20:06:25
(UTC-04:00)

Daily predictions for brighter satellites

Satellite Brightness Start Highest point End
(mag) Time Altitude Azimuth Time Altitude Azimuth Time Altitude Azimuth
ATLAS 2AS CENTAUR R/B 3.8 17:38:51 10° NW 17:46:36 57° WSW 17:53:43 10° SSE
Cosmos 1992 Rocket 4.1 17:42:15 10° SSW 17:47:27 85° WNW 17:52:42 10° NNE
SPOT 3 Rocket 4.5 17:44:39 10° ESE 17:48:51 26° ENE 17:53:05 10° N
Meteor 2-16 Rocket 4.5 17:44:30 10° N 17:50:37 69° ENE 17:56:43 10° SSE
SL-14 R/B 3.7 17:48:28 10° SSE 17:52:14 43° E 17:55:59 10° NNE
NOSS 2-1 (E) 4.1 17:49:13 10° WSW 17:52:52 50° NW 17:57:10 10° NNE
TELKOM 3 4.0 17:51:10 10° WNW 17:53:05 28° N 17:55:04 10° ENE
Cosmos 1726 2.2 17:49:33 10° N 17:53:14 82° W 17:56:53 10° S
Okean 3 Rocket 3.8 17:49:17 10° S 17:53:41 53° E 17:58:05 10° NNE
ATLAS 5 CENTAUR R/B 4.2 17:52:18 10° NNW 17:54:34 13° N 17:56:55 10° NNE
Cosmos 1484 Rocket 3.1 17:51:08 10° S 17:54:53 71° WSW 17:58:38 10° NNW
Meteor 2-21 Rocket 4.5 17:48:54 10° N 17:55:03 88° E 18:01:06 10° S
Meteor 2-10 3.9 17:50:05 10° N 17:55:10 82° E 18:00:17 10° SSE
METEOR-M 4.2 17:50:38 10° SSE 17:55:51 55° ENE 18:01:04 10° N
Cosmos 968 Rocket 3.6 17:51:05 10° NNW 17:56:16 83° WSW 18:01:23 10° SSE
Meteor 1-28 Rocket 3.2 17:54:16 10° NNE 17:58:06 73° ESE 18:01:53 10° S
Geosat 4.2 17:53:21 10° NE 17:58:19 57° ESE 18:03:15 10° SSW
Cosmos 2341 Rocket 4.2 17:53:49 10° N 18:00:06 80° W 18:06:24 10° S
CSL-04 Debris 4.4 17:55:32 10° SSE 18:00:59 82° WSW 18:06:31 10° NNW
ALOS 2.8 17:57:18 10° SE 18:01:35 37° ENE 18:05:52 10° N
BREEZE-M DEB (TANK) 3.0 17:56:21 10° SW 18:02:02 45° SSE 18:04:31 11° E
YAOGAN 1 2.7 17:57:51 10° SSE 18:02:04 54° ENE 18:06:19 10° N
BREEZE-M DEB 4.2 18:02:11 10° WNW 18:05:01 77° NNE 18:08:55 10° ESE
Cosmos 2221 3.0 18:03:05 10° NNW 18:07:26 66° W 18:11:47 10° S
NOSS 3-4 (A) 3.8 18:02:40 10° NW 18:09:39 75° NE 18:17:10 10° SE
NOSS 3-4 (C) 3.8 18:02:46 10° NW 18:09:45 75° NE 18:17:16 10° SE
SeaSat 1 3.8 18:08:14 10° S 18:12:57 44° WSW 18:17:40 10° NW
TSX-5 3.7 18:10:37 10° S 18:13:43 48° ESE 18:17:14 10° NE
COSMOS 2406 4.2 18:11:47 10° SSE 18:16:31 28° ESE 18:21:01 11° NE
CZ-4 R/B 1.8 18:12:23 10° S 18:16:36 75° WSW 18:20:53 10° NNW
MONITOR-E 4.5 18:14:44 10° SE 18:17:37 41° ENE 18:20:32 10° N
Cosmos 1346 Rocket 3.1 18:16:23 10° N 18:20:08 41° ENE 18:23:50 10° SSE
Cosmos 2098 Rocket 4.1 18:17:01 10° N 18:22:06 45° ENE 18:28:19 10° SSE
H-2A R/B 3.8 18:19:51 10° ESE 18:22:59 25° ENE 18:26:10 10° NNE
Cosmos 1943 4.1 18:17:50 10° SW 18:23:15 47° WNW 18:28:40 10° NNE
Cosmos 2181 Rocket 4.3 18:18:00 10° SSW 18:24:26 75° W 18:30:52 10° N
RESURS DK-1 4.3 18:22:52 10° NNE 18:24:49 13° NE 18:24:53 13° NE
Cosmos 2151 4.0 18:22:16 10° SE 18:25:45 25° E 18:28:58 11° NE
Cosmos 1455 3.0 18:22:39 10° NNE 18:26:02 29° ENE 18:29:25 10° SE
Cosmos 1315 Rocket 2.7 18:23:38 10° S 18:27:33 77° E 18:31:29 10° NNE
CZ-2C R/B 3.7 18:23:33 10° NNE 18:28:18 85° ESE 18:32:56 10° SSW
Cosmos 1515 Rocket 4.1 18:27:10 10° N 18:31:10 35° ENE 18:35:08 10° SE
Cosmos 1697 Rocket 4.3 18:28:40 10° N 18:31:40 14° NE 18:32:28 14° NE
Cosmos 1408 Rocket 3.5 18:28:21 10° S 18:32:36 64° E 18:36:52 10° NNE
GEOS 3 Rocket 4.4 18:30:07 15° E 18:33:57 34° NE 18:38:47 10° NNW
Envisat 4.3 18:33:45 18° ENE 18:34:04 18° ENE 18:37:26 10° NNE
SL-8 Rocket 4.4 18:28:13 10° NNW 18:34:22 68° W 18:40:32 10° S
Cosmos 1076 Rocket 4.4 18:35:11 10° SSW 18:39:27 53° WNW 18:43:46 10° N
COSMO-SKYMED 1 2.5 18:37:05 10° NNE 18:41:27 82° ESE 18:45:47 10° SSW
Cosmos 1626 2.0 18:38:58 10° S 18:42:40 76° E 18:46:24 10° NNE
Cosmos 44 3.0 18:38:41 10° SW 18:43:00 90° SE 18:46:24 17° NE
Cosmos 2218 Rocket 4.3 18:37:17 10° NNW 18:43:25 69° W 18:49:29 10° S
Cosmos 1500 Rocket 4.2 18:42:07 10° SSE 18:46:10 35° E 18:48:56 18° NE
Cosmos 371 Rocket 3.9 18:42:31 10° SSE 18:46:50 34° ESE 18:48:54 24° ENE
NOAA 12 4.0 18:42:15 10° SSE 18:47:30 86° ENE 18:52:47 10° NNW
EO 1 Del DPAF 3.2 18:44:48 11° NNE 18:48:28 58° ESE 18:52:14 10° S
Cosmos 1328 4.3 18:46:46 10° SSW 18:50:45 62° W 18:54:46 10° N
Landsat 4 3.6 18:47:02 10° NNE 18:50:48 86° E 18:54:32 10° SSW
Cosmos 1656 Rocket 4.4 18:46:19 10° NW 18:51:40 56° WSW 18:57:03 10° S
USA 215 4.2 18:51:20 17° NE 18:55:34 35° N 19:01:20 10° WNW
Cosmos 909 Rocket 4.0 18:51:58 10° NNW 18:58:59 76° NE 19:05:14 10° SE
Cosmos 2228 Rocket 3.0 18:54:58 10° N 18:59:34 74° E 19:04:08 10° SSE
Tiangong 1 3.3 18:58:58 10° WSW 19:00:24 14° SSW 19:01:26 12° S
Cosmos 1743 Rocket 3.4 18:56:47 10° S 19:01:05 63° E 19:04:58 13° NNE
Cosmos 1328 Rocket 3.6 18:57:15 10° N 19:01:39 80° W 19:05:58 10° S
Cosmos 1937 Rocket 4.4 18:58:13 10° N 19:02:35 28° NE 19:02:35 28° NE
ERS-2 2.1 19:00:03 10° SSE 19:03:44 88° WSW 19:07:27 10° NNW
Thor Agena Rocket 4.2 19:03:37 32° E 19:04:24 33° E 19:09:05 10° SSE
Cosmos 1703 3.3 19:06:23 10° S 19:10:21 81° W 19:14:03 12° N
Cosmos 1340 4.0 19:09:05 10° N 19:10:58 26° NNE 19:10:58 26° NNE
ERBS 2.6 19:12:36 10° NW 19:15:29 53° N 19:15:29 53° N
Cosmos 44 Rocket 3.8 19:17:03 10° SW 19:21:40 55° NW 19:24:06 27° NNE
Cosmos 1821 Rocket 3.8 19:17:05 10° N 19:23:17 78° E 19:29:31 10° SSE
Cosmos 1535 Rocket 4.3 19:18:32 10° N 19:24:41 68° E 19:30:45 10° SSE
Cosmos 1980 Rocket 3.8 19:26:41 10° N 19:29:06 18° NNE 19:29:06 18° NNE
Cosmos 1151 Rocket 3.6 19:29:09 10° NNW 19:33:28 58° W 19:37:46 10° S
Cosmos 2058 3.7 19:34:01 10° SSW 19:38:05 51° WNW 19:41:10 17° N
ALOS 4.5 19:35:11 10° SSW 19:39:06 26° W 19:43:01 10° NW
Nadezhda 3 Rocket 4.3 19:32:53 10° SSW 19:39:12 71° W 19:45:35 10° N
USA 81 4.3 19:35:22 10° SSW 19:40:36 69° W 19:45:54 10° N
ATLAS 5 CENTAUR R/B 4.0 19:38:01 10° NNW 19:40:58 17° NNE 19:40:58 17° NNE
Cosmos 332 Rocket 4.1 19:37:16 10° SSW 19:42:08 67° WNW 19:44:03 36° N
Cosmos 2208 Rocket 3.9 19:42:13 10° SSW 19:47:30 86° ESE 19:48:09 70° NNE
Cosmos 2278 3.8 19:44:29 10° NNW 19:49:30 57° NNE 19:49:30 57° NNE
Cosmos 1898 Rocket 3.4 19:47:36 10° NNW 19:52:58 89° WSW 19:53:19 79° SSE
Lacrosse 5 3.3 19:49:45 10° SSW 19:52:14 26° S 19:52:14 26° S
Cosmos 1934 Rocket 4.1 19:53:00 10° N 19:59:23 79° W 20:05:44 10° S
CZ-4C R/B 3.4 19:55:31 10° SSW 19:57:47 26° S 19:57:47 26° S
COSMOS 2406 3.9 19:54:59 10° SW 20:00:33 51° WNW 20:03:09 29° N
RESURS DK-1 4.4 19:59:21 10° NNW 20:00:49 21° NNW 20:00:49 21° NNW
Cosmos 2369 3.7 19:59:14 10° NNW 20:04:18 70° N 20:04:18 70° N
Cosmos 1605 Rocket 3.8 19:59:43 10° N 20:05:25 75° NNE 20:05:25 75° NNE
GEOS 3 Rocket 4.0 20:11:16 58° SSW 20:11:44 61° SW 20:17:05 10° NW
Envisat 3.7 20:13:56 47° NW 20:13:56 47° NW 20:17:39 10° NNW
Cosmos 1656 4.3 20:10:01 10° NNW 20:13:50 47° NNW 20:13:50 47° NNW
Cosmos 1697 Rocket 3.9 20:11:12 10° NNW 20:14:14 32° N 20:14:14 32° N
USA 215 4.2 20:38:40 36° N 20:38:40 36° N 20:43:34 10° NW
